| time (UTC) | temp C | wind direction | speed KPH | gust KPH | rain 1hr cm | rain 24hr cm | rain mn cm | humidity % | barometer mb |
| 20260504205011 | 4 | 22 | 43.5 | 43.5 | 0.00 | 0.00 | 0.00 | 66 | 88.8 |
| 20260504204012 | 4 | 338 | 25.7 | 25.7 | 0.00 | 0.00 | 0.00 | 67 | 88.8 |
| 20260504203011 | 3 | 338 | 27.4 | 27.4 | 0.00 | 0.00 | 0.00 | 67 | 88.8 |
| 20260504202011 | 3 | 22 | 29.0 | 29.0 | 0.00 | 0.00 | 0.00 | 67 | 88.8 |
| 20260504201012 | 3 | 22 | 19.3 | 19.3 | 0.00 | 0.00 | 0.00 | 66 | 88.8 |
| 20260504200011 | 3 | 22 | 25.7 | 25.7 | 0.00 | 0.00 | 0.00 | 67 | 88.8 |
| 20260504195012 | 3 | 338 | 19.3 | 19.3 | 0.00 | 0.00 | 0.00 | 65 | 88.8 |
| 20260504194012 | 4 | 0 | 29.0 | 29.0 | 0.00 | 0.00 | 0.00 | 65 | 88.8 |
| 20260504193012 | 4 | 338 | 35.4 | 35.4 | 0.00 | 0.00 | 0.00 | 65 | 88.8 |
| 20260504191012 | 4 | 22 | 29.0 | 29.0 | 0.00 | 0.00 | 0.00 | 64 | 88.8 |
| 20260504190011 | 4 | 338 | 20.9 | 20.9 | 0.00 | 0.00 | 0.00 | 65 | 88.8 |
| 20260504185012 | 4 | 338 | 24.1 | 24.1 | 0.00 | 0.00 | 0.00 | 65 | 88.8 |
| 20260504184012 | 3 | 292 | 38.6 | 38.6 | 0.00 | 0.00 | 0.00 | 67 | 88.8 |
| 20260504182012 | 3 | 338 | 25.7 | 25.7 | 0.00 | 0.00 | 0.00 | 69 | 88.8 |
| 20260504181011 | 3 | 22 | 29.0 | 29.0 | 0.00 | 0.00 | 0.00 | 68 | 88.8 |
| 20260504180011 | 3 | 338 | 19.3 | 19.3 | 0.00 | 0.00 | 0.00 | 69 | 88.8 |
| 20260504175012 | 3 | 338 | 35.4 | 35.4 | 0.00 | 0.00 | 0.00 | 70 | 88.8 |
| 20260504174012 | 3 | 0 | 22.5 | 22.5 | 0.00 | 0.00 | 0.00 | 70 | 88.8 |
| 20260504173012 | 3 | 292 | 14.5 | 14.5 | 0.00 | 0.00 | 0.00 | 71 | 88.8 |
| 20260504172013 | 2 | 22 | 29.0 | 29.0 | 0.00 | 0.00 | 0.00 | 73 | 88.8 |
| 20260504171012 | 2 | 0 | 25.7 | 25.7 | 0.00 | 0.00 | 0.00 | 74 | 88.8 |
| 20260504151012 | 1 | 22 | 35.4 | 35.4 | 0.00 | 0.00 | 0.00 | 75 | 88.8 |
| 20260504141011 | 1 | 0 | 33.8 | 33.8 | 0.00 | 0.00 | 0.00 | 77 | 88.8 |
| 20260504081011 | 2 | 338 | 16.1 | 16.1 | 0.00 | 0.00 | 0.00 | 91 | 88.8 |
| 20260504050012 | 5 | 22 | 16.1 | 16.1 | 0.00 | 0.00 | 0.00 | 83 | 88.8 |
| 20260504045011 | 5 | 22 | 14.5 | 14.5 | 0.00 | 0.00 | 0.00 | 83 | 88.8 |
| 20260504044012 | 6 | 22 | 27.4 | 27.4 | 0.00 | 0.00 | 0.00 | 81 | 88.8 |
| 20260504043011 | 6 | 22 | 32.2 | 32.2 | 0.00 | 0.00 | 0.00 | 76 | 88.8 |
| 20260504042012 | 6 | 22 | 38.6 | 38.6 | 0.00 | 0.00 | 0.00 | 72 | 88.8 |
| 20260504041012 | 6 | 22 | 29.0 | 29.0 | 0.00 | 0.00 | 0.00 | 65 | 88.8 |
| 20260504040011 | 6 | 22 | 30.6 | 30.6 | 0.00 | 0.00 | 0.00 | 64 | 88.8 |
| 20260504035011 | 7 | 22 | 20.9 | 20.9 | 0.00 | 0.00 | 0.00 | 64 | 88.8 |
| 20260504033012 | 7 | 22 | 24.1 | 24.1 | 0.00 | 0.00 | 0.00 | 64 | 88.8 |
| 20260504032012 | 7 | 22 | 14.5 | 14.5 | 0.00 | 0.00 | 0.00 | 63 | 88.8 |
| 20260504031012 | 8 | 22 | 17.7 | 17.7 | 0.00 | 0.00 | 0.00 | 62 | 88.8 |
| 20260504030012 | 8 | 22 | 16.1 | 16.1 | 0.00 | 0.00 | 0.00 | 61 | 88.8 |
| 20260504025011 | 8 | 22 | 25.7 | 25.7 | 0.00 | 0.00 | 0.00 | 60 | 88.8 |
| 20260504024012 | 10 | 22 | 17.7 | 17.7 | 0.00 | 0.00 | 0.00 | 59 | 88.8 |
| 20260504023013 | 10 | 45 | 32.2 | 32.2 | 0.00 | 0.00 | 0.00 | 56 | 88.8 |
| 20260504022012 | 11 | 22 | 38.6 | 38.6 | 0.00 | 0.00 | 0.00 | 50 | 88.8 |
| 20260504021012 | 11 | 0 | 25.7 | 25.7 | 0.00 | 0.00 | 0.00 | 48 | 88.8 |
| 20260504020012 | 11 | 0 | 29.0 | 29.0 | 0.00 | 0.00 | 0.00 | 48 | 88.8 |
| 20260504015011 | 12 | 22 | 27.4 | 27.4 | 0.00 | 0.00 | 0.00 | 47 | 88.8 |
| 20260504014012 | 12 | 338 | 29.0 | 29.0 | 0.00 | 0.00 | 0.00 | 50 | 88.8 |
| 20260504013012 | 12 | 315 | 29.0 | 29.0 | 0.00 | 0.00 | 0.00 | 50 | 88.8 |
| 20260504012011 | 12 | 315 | 27.4 | 27.4 | 0.00 | 0.00 | 0.00 | 50 | 88.8 |
| 20260504011012 | 12 | 315 | 41.8 | 41.8 | 0.00 | 0.00 | 0.00 | 47 | 88.8 |
| 20260504010011 | 13 | 338 | 40.2 | 40.2 | 0.00 | 0.00 | 0.00 | 44 | 88.8 |
| 20260504005011 | 13 | 0 | 25.7 | 25.7 | 0.00 | 0.00 | 0.00 | 43 | 88.8 |
| 20260504004012 | 13 | 0 | 35.4 | 35.4 | 0.00 | 0.00 | 0.00 | 44 | 88.8 |
| 20260504003012 | 14 | 338 | 33.8 | 33.8 | 0.00 | 0.00 | 0.00 | 43 | 88.8 |
| 20260504002012 | 15 | 0 | 40.2 | 40.2 | 0.00 | 0.00 | 0.00 | 41 | 88.8 |
| 20260504001011 | 15 | 315 | 32.2 | 32.2 | 0.00 | 0.00 | 0.00 | 41 | 88.8 |
| 20260504000012 | 15 | 315 | 40.2 | 40.2 | 0.00 | 0.00 | 0.00 | 41 | 88.8 |
| 20260503235011 | 15 | 292 | 30.6 | 30.6 | 0.00 | 0.00 | 0.00 | 41 | 88.8 |
| 20260503234011 | 16 | 338 | 41.8 | 41.8 | 0.00 | 0.00 | 0.00 | 40 | 88.8 |
| 20260503233012 | 16 | 22 | 33.8 | 33.8 | 0.00 | 0.00 | 0.00 | 38 | 88.8 |
| 20260503232011 | 16 | 315 | 43.5 | 43.5 | 0.00 | 0.00 | 0.00 | 37 | 88.8 |
| 20260503231011 | 16 | 0 | 46.7 | 46.7 | 0.00 | 0.00 | 0.00 | 37 | 88.8 |
| 20260503230012 | 17 | 315 | 45.1 | 45.1 | 0.00 | 0.00 | 0.00 | 36 | 88.8 |
| 20260503225011 | 17 | 22 | 54.7 | 54.7 | 0.00 | 0.00 | 0.00 | 37 | 88.8 |
| 20260503224012 | 18 | 315 | 45.1 | 45.1 | 0.00 | 0.00 | 0.00 | 38 | 88.8 |
| 20260503223012 | 18 | 0 | 48.3 | 48.3 | 0.00 | 0.00 | 0.00 | 38 | 88.8 |
| 20260503222012 | 18 | 338 | 49.9 | 49.9 | 0.00 | 0.00 | 0.00 | 37 | 88.8 |
| 20260503221011 | 18 | 22 | 46.7 | 46.7 | 0.00 | 0.00 | 0.00 | 36 | 88.8 |
| 20260503220012 | 19 | 338 | 43.5 | 43.5 | 0.00 | 0.00 | 0.00 | 35 | 88.8 |
| 20260503215011 | 19 | 0 | 43.5 | 43.5 | 0.00 | 0.00 | 0.00 | 36 | 88.8 |
| 20260503214012 | 19 | 338 | 48.3 | 48.3 | 0.00 | 0.00 | 0.00 | 39 | 88.8 |
| 20260503213012 | 20 | 22 | 35.4 | 35.4 | 0.00 | 0.00 | 0.00 | 39 | 88.8 |
| 20260503212011 | 20 | 315 | 43.5 | 43.5 | 0.00 | 0.00 | 0.00 | 41 | 88.8 |
| 20260503211011 | 20 | 315 | 41.8 | 41.8 | 0.00 | 0.00 | 0.00 | 41 | 88.8 |
| 20260503210012 | 21 | 292 | 40.2 | 40.2 | 0.00 | 0.00 | 0.00 | 40 | 88.8 |